x

Eel River - 17nm Wsw Of Eureka, Ca (46022) Wave Buoy

1:50am - Tue 26th May 2015 All times are PDT. -7 hours from GMT.

  • Sig Wave height 7.5ft
  • Swell Direction
  • Peak Period 8s
  • Average Period 7s
  • Wind
    11mph, 16mph gusts
  • Sea Temp 51°f
  • Air Temp 52°f
  • Sea Pressure 1015.4mb
  • Eel River - 17nm Wsw Of Eureka, Ca
  • Eel River - 17nm Wsw Of Eureka, Ca

More Historic Weather Station data

Upgrade to MSW Pro to gain access to the past 30 days of data for over 8000 Wavebouys and Weather Stations around the globe.

Join Pro

Comparision Forecast

View Surf forecast
   
Tue 05/26 1:50am 7.5ft 8s 7s 11 16 mph 1015.4mb 51f 52f
12:50am 7.5ft 8s 7s 9 11 mph 1016mb 51f 52f
Mon 05/25 11:50pm 7ft 8s 7s 11 16 mph 1016mb 51f 52f
10:50pm 6.5ft 8s 6s 11 13 mph 1015.9mb 51f 52f
9:50pm 7.5ft 8s 7s 11 16 mph 1015.7mb 51f 53f
8:50pm 7ft 8s 6s 13 18 mph 1015.6mb 51f 53f
7:50pm 7ft 7s 6s 13 16 mph 1015.4mb 51f 53f
6:50pm 7ft 8s 6s 11 16 mph 1015.3mb 51f 52f
5:50pm 7ft 8s 6s 7 9 mph 1015.6mb 51f 53f
4:50pm 7.5ft 8s 6s 13 16 mph 1015.7mb 51f 53f
3:50pm 8ft 8s 6s 16 18 mph 1015.8mb 51f 52f
2:50pm 8ft 8s 7s 18 22 mph 1015.7mb 51f 52f
1:50pm 7.5ft 8s 7s 16 20 mph 1015.9mb 51f 52f
12:50pm 7ft 8s 6s 13 18 mph 1016.1mb 51f 51f
11:50am 7ft 8s 6s 13 16 mph 1015.9mb 51f 51f
10:50am 7ft 8s 6s 16 20 mph 1015.5mb 51f 50f
9:50am 7ft 8s 7s 18 22 mph 1015.4mb 51f 50f
8:50am 7ft 8s 7s 16 18 mph 1015.5mb 51f 50f
7:50am 7.5ft 8s 7s 11 13 mph 1015.2mb 51f 51f
6:50am 8.5ft 8s 7s 13 16 mph 1014.7mb 51f 50f
5:50am 9ft 8s 7s 16 20 mph 1014.1mb 51f 50f
4:50am 10ft 9s 7s 18 22 mph 1014mb 51f 50f
3:50am 9.5ft 9s 7s 22 27 mph 1014.2mb 51f 51f
2:50am 10ft 9s 7s 20 25 mph 1014.9mb 51f 51f
1:50am 9.5ft 8s 7s 18 22 mph 1015.8mb 51f 52f
12:50am 8ft 8s 7s 13 20 mph 1016.2mb 51f 52f
Sun 05/24 11:50pm 8.5ft 9s 7s 13 16 mph 1016.4mb 51f 52f
10:50pm 9ft 8s 7s 13 16 mph 1016.7mb 51f 52f
9:50pm 8ft 8s 7s 9 11 mph 1016.7mb 51f 52f
8:50pm 8ft 8s 6s 13 18 mph 1016.3mb 51f 53f
7:50pm 7.5ft 8s 6s 11 13 mph 1016.4mb 51f 53f
6:50pm 7.5ft 8s 7s 11 13 mph 1016.2mb 51f 52f
5:50pm 8ft 8s 7s 9 11 mph 1016.5mb 51f 52f
4:50pm 7ft 8s 6s 16 20 mph 1016.6mb 51f 53f
3:50pm 7.5ft 8s 6s 16 18 mph 1016.9mb 51f 52f
2:50pm 8ft 8s 6s 13 18 mph 1017.4mb 51f 52f
1:50pm 7ft 8s 6s 18 22 mph 1017.7mb 51f 52f
12:50pm 7ft 8s 6s 16 18 mph 1018.2mb 51f 51f
11:50am 7ft 7s 6s 20 25 mph 1018.2mb 51f 51f
10:50am 7.5ft 8s 6s 20 25 mph 1018.3mb 50f 52f
9:50am 6.5ft 7s 6s 16 20 mph 1018.7mb 50f 52f
8:50am 7ft 7s 6s 18 22 mph 1018.9mb 50f 51f
7:50am 7.5ft 8s 6s 25 29 mph 1018.6mb 50f 51f
6:50am 8ft 7s 6s 22 27 mph 1018.5mb 50f 51f
5:50am 8ft 8s 6s 25 31 mph 1017.9mb 51f 51f
4:50am 9ft 8s 6s 20 27 mph 1018.2mb 51f 52f
3:50am 8ft 8s 6s 20 27 mph 1018.6mb 51f 52f
2:50am 9ft 8s 6s 20 25 mph 1019.3mb 51f 53f
1:50am 8ft 8s 6s 18 22 mph 1020.2mb 51f 53f
12:50am 8ft 8s 7s 18 20 mph 1020.7mb 51f 53f
Sat 05/23 11:50pm 7.5ft 7s 6s 13 18 mph 1021.2mb 51f 53f
10:50pm 7ft 8s 6s 13 16 mph 1021.3mb 51f 53f
9:50pm 7ft 8s 6s 13 16 mph 1021.3mb 51f 53f
8:50pm 6ft 8s 6s 16 18 mph 1021.2mb 51f 53f
7:50pm 5ft 8s 6s 11 13 mph 1021.1mb 51f 53f
6:50pm 5ft 6s 6s 16 18 mph 1020.9mb 51f 53f
5:50pm 5.5ft 6s 6s 13 16 mph 1021.3mb 52f 53f
4:50pm 5ft 8s 6s 9 11 mph 1021.6mb 51f 53f
3:50pm 5ft 8s 6s 13 16 mph 1021.9mb 51f 54f
2:50pm 5ft 8s 6s 18 22 mph 1021.9mb 51f 54f
1:50pm 5ft 8s 6s 18 22 mph 1022.2mb 51f 53f
12:50pm 5.5ft 8s 6s 9 13 mph 1022.7mb 51f 53f
11:50am 5.5ft 8s 5s 16 18 mph 1022.3mb 51f 53f
10:50am 5.5ft 8s 6s 13 18 mph 1022.1mb 51f 53f
9:50am 5.5ft 8s 6s 16 18 mph 1021.8mb 51f 53f
8:50am 5ft 8s 6s 11 13 mph 1022mb 51f 53f
7:50am 5ft 6s 6s 11 13 mph 1021.8mb 51f 53f
6:50am 5ft 8s 6s 9
mph
1021.7mb 51f 53f
5:50am 5ft 9s 6s 11
mph
1021.2mb 51f 53f
4:50am 5ft 6s 6s 7 9 mph 1021.2mb 50f 53f
3:50am 5.5ft 8s 6s 9 11 mph 1021.4mb 51f 53f
2:50am 5.5ft 8s 6s 11 13 mph 1021.5mb 51f 53f
1:50am 5.5ft 8s 6s 11 13 mph 1021.5mb 51f 53f
12:50am 5ft 8s 6s 13 16 mph 1021.4mb 51f 53f
Fri 05/22 11:50pm 5ft 9s 6s 11 13 mph 1021.1mb 52f 53f
10:50pm 5ft 10s 6s 11 13 mph 1021mb 52f 53f
9:50pm 5ft 8s 6s 9 11 mph 1020.4mb 52f 53f
8:50pm 4.5ft 9s 6s 11 13 mph 1020mb 52f 53f
7:50pm 4.5ft 8s 6s 16 18 mph 1019.6mb 52f 54f
6:50pm 5ft 8s 6s 13 16 mph 1019.2mb 53f 54f
5:50pm 5ft 11s 6s 11 13 mph 1019mb 53f 54f
4:50pm 5ft 9s 7s 13 16 mph 1018.9mb 53f 54f
3:50pm 5ft 9s 7s 11 13 mph 1018.9mb 53f 54f
2:50pm 5ft 10s 7s 13 16 mph 1018.9mb 53f 54f
1:50pm 5ft 8s 7s 13 16 mph 1018.8mb 52f 54f
12:50pm 4.5ft 8s 7s 9 11 mph 1018.8mb 52f 53f
11:50am 4.5ft 11s 7s 13 16 mph 1018.7mb 52f 53f
10:50am 4.5ft 9s 7s 11 13 mph 1018.6mb 52f 53f